#timestamp,LO_Frequency,Hit,StdDev 
1543572015.0,286046990.6,N
1543572015.9,286046990.6,N
1543572035.8,286046991.3,N
1543572055.6,286046991.6,N
1543572075.4,286046989.5,N
1543572095.3,286046989.1,N
1543572115.1,286046987.3,N
1543572135.8,286046986.9,N
1543572155.7,286046990.0,N
1543572175.5,286046991.3,N
1543572195.4,286046990.2,N
1543572215.2,286046995.8,N
1543572235.0,286047002.0,N
1543572235.9,286047002.0,N
1543572255.8,286047000.0,N
1543572275.6,286047004.0,N
1543572295.4,286047006.0,N
1543572315.3,286047007.6,N
1543572335.1,286047006.3,N
1543572355.9,286047005.8,N
1543572375.7,286047001.5,N
1543572395.5,286047000.6,N
1543572415.4,286046999.4,N
1543572435.2,286046999.6,N
1543572455.0,286046997.9,N
1543572455.9,286046997.9,N
1543572475.8,286046996.3,N
1543572495.6,286046993.9,N
1543572515.5,286046992.4,N
1543572535.3,286046991.4,N
1543572555.1,286046989.9,N
1543572575.9,286046987.0,N
1543572595.7,286046987.2,N
1543572615.5,286046987.1,N
1543572635.4,286046987.8,N
1543572655.2,286046988.3,N
1543572675.1,286046986.3,N
1543572676.0,286046986.3,N
1543572695.8,286046983.8,N
1543572715.6,286046984.2,N
1543572735.5,286046984.6,N
1543572755.3,286046984.0,N
1543572775.1,286046984.1,N
1543572795.9,286046985.1,N
1543572815.7,286046983.0,N
1543572835.6,286046982.7,N
1543572855.4,286046980.5,N
1543572875.2,286046980.7,N
1543572895.1,286046983.5,N
1543572896.0,286046983.5,N
1543572915.8,286046980.6,Y
1543572935.6,286046992.4,P
1543572955.5,286046992.3,P
1543572975.3,286046991.9,P
1543572995.2,286046991.9,Y
1543573015.9,286047002.7,P
1543573035.7,286047000.0,N
1543573055.6,286047000.2,N
1543573075.4,286047000.4,N
1543573095.3,286047000.6,N
1543573115.1,286047001.0,N
1543573116.0,286047001.0,N
1543573135.8,286047000.4,N
1543573155.7,286047000.6,N
1543573175.5,286046998.2,N
1543573195.3,286046999.4,N
1543573215.2,286046999.4,N
1543573235.0,286046999.6,N
1543573235.9,286046999.6,N
1543573255.8,286047001.2,N
1543573275.6,286047002.6,N
1543573295.4,286047002.3,N
1543573315.3,286047001.1,N
1543573335.1,286047001.0,N
1543573355.9,286046998.7,N
1543573375.7,286046998.7,N
1543573395.5,286046998.3,N
1543573415.4,286047001.2,N
1543573435.2,286046998.5,N
1543573455.0,286047002.2,N
1543573455.9,286047002.2,N
1543573475.8,286047000.1,N
1543573495.6,286047002.5,N
1543573515.5,286047001.7,N
1543573535.3,286047001.4,N
1543573555.1,286047002.6,N
1543573575.9,286047000.3,N
1543573595.7,286047000.3,N
1543573615.5,286046998.1,N
1543573635.4,286047000.9,N
1543573655.2,286047001.2,N
1543573675.1,286047001.2,N
1543573676.0,286047001.2,N
1543573695.8,286046998.4,N
1543573715.6,286046998.1,N
1543573735.5,286046998.2,N
1543573755.3,286046999.0,N
1543573775.1,286047000.4,N
1543573795.9,286047003.4,N
1543573815.7,286047004.9,Y
1543573835.6,286047004.6,P
1543573855.4,286047007.2,P
1543573875.2,286047006.1,N
1543573895.1,286047013.7,Y
1543573896.0,286047013.7,P
1543573915.8,286047009.8,N
1543573935.6,286047010.0,N
1543573955.5,286047011.2,Y
1543573975.3,286047002.8,P
1543573995.2,286046999.8,N
1543574015.9,286047005.0,N
1543574035.7,286047004.9,N
1543574055.6,286047008.8,N
1543574075.4,286047008.7,N
1543574095.2,286047008.5,N
1543574115.1,286047011.0,Y
1543574116.0,286047011.0,P
1543574135.8,286047007.9,P
1543574155.7,286047009.3,P
1543574175.5,286047007.8,Y
1543574195.3,286047000.7,P
1543574215.2,286046996.7,N
1543574235.0,286046995.0,N
1543574235.9,286046995.0,N
1543574255.8,286046993.7,N
1543574275.6,286046990.7,N
1543574295.4,286046989.1,N
1543574315.3,286046985.3,N
1543574335.1,286046987.8,N
1543574355.8,286046986.2,N
1543574375.7,286046986.8,N
1543574395.5,286046984.1,N
1543574415.3,286046985.1,N
1543574435.2,286046984.6,N
1543574455.0,286046983.2,N
1543574455.9,286046983.2,N
1543574475.8,286046980.9,N
1543574495.6,286046981.5,N
1543574515.4,286046980.7,N
1543574535.3,286046979.0,N
1543574555.1,286046979.9,N
1543574575.8,286046979.2,N
1543574595.7,286046977.8,Y
1543574615.5,286046990.8,P
1543574635.4,286046992.7,P
1543574655.2,286046990.2,P
1543574675.0,286046996.3,N
1543574675.9,286046996.3,N
1543574695.8,286046997.3,N
1543574715.6,286047001.1,N
1543574735.4,286047000.7,N
1543574755.3,286046999.1,N
1543574775.1,286046997.3,N
1543574795.9,286046998.0,N
1543574815.7,286046995.2,N
1543574835.5,286046996.3,N
1543574855.4,286046994.3,N
1543574875.2,286046992.5,N
1543574895.0,286046992.4,N
1543574895.9,286046992.4,N
1543574915.8,286046990.9,N
1543574935.6,286046991.0,N
1543574955.5,286046988.5,Y
1543574975.3,286046994.1,P
1543574995.1,286046991.7,P
1543575015.9,286046996.4,N
1543575035.7,286046995.8,N
1543575055.5,286046996.3,N
1543575075.4,286046994.6,Y
1543575095.2,286046998.8,P
1543575115.1,286046998.7,N
1543575116.0,286046998.7,N
1543575135.8,286046997.0,N
1543575155.6,286046996.9,N
1543575175.5,286046997.8,N
1543575195.3,286046996.5,N
1543575215.1,286046999.2,N
1543575235.9,286046997.9,N
1543575255.7,286046997.9,N
1543575275.6,286046997.6,N
1543575295.4,286046997.8,N
1543575315.2,286046998.0,N
1543575335.1,286046999.2,N
1543575336.0,286046999.2,N
1543575355.8,286046999.0,N
1543575375.6,286046997.2,N
1543575395.5,286046998.0,N
1543575415.3,286046995.4,Y
1543575435.2,286046997.3,P
1543575455.9,286046995.9,P
1543575475.7,286046995.5,P
1543575495.6,286046995.8,Y
1543575515.4,286046998.4,P
1543575535.2,286046996.5,P
1543575555.1,286046997.2,P
1543575556.0,286046997.2,Y
1543575575.8,286046998.1,P
1543575595.7,286047000.9,N
